Zurück zum Katalog

FREGAT R/B

AktivHEO
NORAD 49504·ROCKET BODY·🇷🇺 Russia

Gestartet Nov 25, 2021 von Plesetsk Cosmodrome

Loading…

Nächste Überflüge (nächste 24 Stunden)

TLE

AktuellSource: Space-Track

Epoche: Sep 13, 2026, 00:43 UTC

1 49504U 21113B   26256.03041501  .00001240  00000-0  00000-0 0  9992
2 49504  63.3423 199.1430 6474826 265.7897  23.3531  2.01603785 35336

Verfolge FREGAT R/B in Echtzeit mit AllMySat

Download on the App Store